Home > Weather > Iasi > Past weeks

Flag for Romania Weather for the Past 2 Weeks in Iasi, Romania

Now
54 °F

Sunny.


Feels Like: 50 °F
Forecast: 37 / 62 °F
Wind: 10 mph from Southwest

Location: Iasi Airport

Current Time: Feb 14, 2016 at 12:22:03 PM

Latest Report: Feb 14, 2016 at 12:00 PM


Visibility: 10 mi

Pressure: 29.50 "Hg

Humidity: 47%

Dew point: 34 °F

Location of IasiLocation

Historic Weather in Iasi — Graph

°F

Iasi Temperature Yesterday

Maximum temperature yesterday: 43 °F (at 2:00 PM)
Minimum temperature yesterday: 32 °F (at 3:00 AM)
Average temperature yesterday: 38 °F

High & Low Weather Summary for the Past Weeks

 TemperatureHumidityPressure
High54 °F (Jan 31, 4:00 PM)100% (Feb 2, 6:30 PM)30.36 "Hg (Feb 2, 6:30 PM)
Low25 °F (Feb 7, 6:00 AM)32% (Feb 12, 5:00 PM)29.36 "Hg (Feb 14, 1:00 AM)
Average39 °F73%29.95 "Hg
* Reported Jan 30 11:00 AM — Feb 14 11:00 AM, Iasi, Weather by CustomWeather, © 2016

Note: Actual official high and low records may vary slightly from our data, if they occured in-between our weather recording intervals... More about our weather records

Advertising

Iasi Weather History for the Previous 24 Hours

 ConditionsComfort  
Time TempWeatherWind HumidityBarometerVisibility
11:00 AM
Sun, Feb 14
54 °FPassing clouds.10 mph51%29.50 "HgN/A
10:30 AM52 °FSunny.8 mph54%29.50 "Hg10 mi
10:00 AM48 °FSunny.6 mph66%29.47 "Hg10 mi
9:30 AM46 °FSunny.6 mph71%29.47 "Hg10 mi
9:00 AM45 °FSunny.6 mph76%29.47 "Hg10 mi
8:30 AM43 °FSunny.6 mph81%29.45 "Hg10 mi
8:00 AM41 °FSunny.6 mph87%29.45 "Hg10 mi
7:30 AM39 °FSunny.5 mph93%29.42 "Hg10 mi
7:00 AM39 °FClear.5 mph87%29.42 "Hg10 mi
6:30 AM39 °FPassing clouds.3 mph87%29.42 "HgN/A
6:00 AM39 °FPassing clouds.3 mph87%29.39 "Hg6 mi
5:30 AM39 °FMostly cloudy.5 mph93%29.39 "Hg5 mi
5:00 AM39 °FLight rain. Fog.7 mph93%29.39 "Hg3 mi
4:00 AM39 °FLight rain. Fog.5 mph93%29.36 "Hg2 mi
3:00 AM39 °FLight rain. Fog.5 mph93%29.36 "Hg1 mi
1:00 AM39 °FLight rain. Fog.1 mph93%29.36 "Hg2 mi
12:00 AM39 °FRain. Fog.8 mph93%29.39 "Hg0 mi
11:00 PM
Sat, Feb 13
39 °FLight rain. Fog.8 mph93%29.42 "Hg0 mi
10:00 PM39 °FFog.10 mph93%29.45 "Hg1 mi
9:00 PM39 °FDrizzle. Fog.15 mph87%29.47 "Hg1 mi
8:30 PM39 °FDrizzle. Fog.14 mph87%29.47 "Hg1 mi
8:00 PM39 °FDrizzle. Fog.14 mph87%29.50 "Hg2 mi
7:30 PM39 °FPartly cloudy.16 mph87%29.50 "HgN/A
7:00 PM39 °FPartly cloudy.14 mph87%29.53 "HgN/A
6:30 PM39 °FPartly cloudy.18 mph87%29.53 "Hg5 mi
6:00 PM39 °FPartly cloudy.18 mph87%29.53 "HgN/A
5:30 PM41 °FPartly cloudy.20 mph87%29.53 "HgN/A
5:00 PM41 °FScattered clouds.23 mph87%29.53 "HgN/A
4:30 PM41 °FBroken clouds.21 mph87%29.56 "HgN/A
4:00 PM43 °FBroken clouds.23 mph87%29.56 "HgN/A
3:30 PM43 °FBroken clouds.18 mph87%29.59 "Hg6 mi
3:00 PM43 °FLight rain. Fog.15 mph87%29.59 "Hg3 mi
2:30 PM43 °FLight rain. Broken clouds.13 mph87%29.62 "Hg4 mi
2:00 PM43 °FLight rain. Broken clouds.15 mph87%29.62 "Hg5 mi
1:30 PM41 °FLight rain. Broken clouds.16 mph87%29.62 "Hg4 mi
1:00 PM41 °FPartly sunny.15 mph87%29.65 "Hg4 mi
12:30 PM41 °FPartly sunny.14 mph87%29.68 "Hg4 mi
12:00 PM39 °FPartly sunny.14 mph93%29.68 "Hg4 mi
Weather by CustomWeather, © 2016

See weather overviewHow to use our weather pages